Other Public Products
Issued by NWS Grand Forks, ND

Home | Current Version | Previous Version | Text Only | Print | Product List | Glossary On
Versions: 1 2 3 4 5 6 7 8 9 10 11 12 13 14 15 16 17 18 19 20 21 22 23 24 25 26 27 28 29 30 31 32 33 34 35 36 37 38 39 40 41 42 43 44 45 46 47 48 49 50
000
FPUS83 KFGF 290610
OPUFGF
PRAIRIE TO PINES WEATHER ROUNDUP
NATIONAL WEATHER SERVICE EASTERN NORTH DAKOTA/GRAND FORKS ND
1200 AM CST THU JAN 29 2015

 **SATELLITE DATA USED TO AUGMENT SKY COVER AT AUTOMATED STATIONS**
 *****  WEATHER ACROSS EASTERN NORTH DAKOTA  *****

CITY           SKY/WX    TMP DP  RH WIND       PRES   REMARKS
GRAND FORKS    CLOUDY    23  19  86 NW22G30   30.12R WCI   8
6HR MIN TEMP:  24; 6HR MAX TEMP:  32; 6HR PCP: TRACE;

GRAND FORKS AF CLOUDY    23  19  84 N15       30.13R WCI  10
GRAND CITY NWS   N/A     23 N/A N/A NW18        N/A  WCI   9
BUXTON         NOT AVBL
DEVILS LAKE    CLOUDY    25  19  80 N17       30.16R WCI  11
6HR MIN TEMP:  23; 6HR MAX TEMP:  27;

FARGO          CLOUDY    29  25  85 NW24G30   30.08R WCI  15
6HR MIN TEMP:  29; 6HR MAX TEMP:  34; 6HR PCP: TRACE;

WAHPETON ARPT  CLOUDY    30  27  86 N22G30    30.05R WCI  17
$$

 *****  WEATHER ACROSS CENTRAL AND WESTERN NORTH DAKOTA  *****

CITY           SKY/WX    TMP DP  RH WIND       PRES   REMARKS
JAMESTOWN      CLOUDY    27  22  81 N21G37    30.14R WCI  13
6HR MIN TEMP:  27; 6HR MAX TEMP:  32; 6HR PCP: TRACE;

BISMARCK       CLOUDY    33  27  78 NW17G26   30.24R WCI  22
6HR MIN TEMP:  32; 6HR MAX TEMP:  33;

MINOT          CLOUDY    28  22  78 NW22G29   30.25R WCI  14
6HR MIN TEMP:  28; 6HR MAX TEMP:  29; 6HR PCP: TRACE;

MINOT AFB      CLOUDY    28  28  99 NW25G32   30.24R WCI  13
6HR MIN TEMP:  28; 6HR MAX TEMP:  29;

GARRISON         N/A     31  27  85 NW18      30.24R WCI  19
6HR MIN TEMP:  30; 6HR MAX TEMP:  32;

WILLISTON      CLOUDY    31  26  82 N15G21    30.34R WCI  20
6HR MIN TEMP:  31; 6HR MAX TEMP:  34;

DICKINSON      CLOUDY    33  27  78 NW16G24   30.25R WCI  23
6HR MIN TEMP:  32; 6HR MAX TEMP:  33;

HETTINGER      CLOUDY    32  26  78 NW16      30.28R WCI  21
6HR MIN TEMP:  31; 6HR MAX TEMP:  34;

$$

 *****  OTHER OBSERVATIONS NORTHEAST NORTH DAKOTA  *****

CITY           SKY/WX    TMP DP  RH WIND       PRES   REMARKS
WALHALLA         N/A     19  19 100 NW18      30.17R WCI   4
LANGDON        CLOUDY    18  16  93 N18       30.13R WCI   2
CAVALIER       CLOUDY    19  16  86 NW20G28   30.15R WCI   4
GRAFTON        NOT AVBL
CANDO          CLOUDY    23  19  86 NW18G28   30.18R WCI   9
FORT TOTTEN    NOT AVBL
ROLLA          CLOUDY    19  19 100 NW22G28   30.17R WCI   3
RUGBY          CLOUDY    23  19  86 NW15G22   30.21R WCI  10
 ***** THE ABOVE OBSERVATIONS ARE NON NWS ARE NOT QUALITY
        CONTROLLED AND MAY MIS-REPORT RAIN FOR SNOW...
$$

 *****  OTHER OBSERVATIONS SOUTHEAST NORTH DAKOTA *****

CITY           SKY/WX    TMP DP  RH WIND       PRES   REMARKS
COOPERSTOWN    NOT AVBL
VALLEY CITY    FLURRIES  25  25 100 N25G33    30.13R WCI   9
OAKES            N/A     28  28 100 NW23      30.13R WCI  14
GWINNER        CLOUDY    32  32 100 NW21G28   30.11R WCI  20
SHEYENNE NWR     N/A     30  26  83 NW16      29.95S WCI  19
BUFFALO        NOT AVBL
WYNDMERE         N/A     30  27  86 NW20        N/A  WCI  18
 ***** THE ABOVE OBSERVATIONS ARE NON NWS ARE NOT QUALITY
       CONTROLLED AND MAY MIS-REPORT RAIN FOR SNOW...
$$

  *****  WEATHER ACROSS NORTHERN MINNESOTA  *****

CITY           SKY/WX    TMP DP  RH WIND       PRES   REMARKS
FLAG ISLAND    CLOUDY    27  23  86 NW28      29.96R WCI  11
WARROAD        CLOUDY    25  19  80 NW15G24   30.00R WCI  12
ROSEAU         CLOUDY    25  21  86 NW18G24   30.01R WCI  11
HALLOCK        CLOUDY    18  14  86 NW22G28   30.11R WCI   0
THF RVR FALLS  CLOUDY    21  19  93 NW20      30.04R WCI   6
6HR MIN TEMP:  21; 6HR MAX TEMP:  34;

HALSTAD          N/A     26  23  88 N21         N/A  WCI  12
FOSSTON        CLOUDY    21  21 100 NW17G26   30.01R FOG     WCI   7
BAUDETTE       CLOUDY    29  24  82 NW15      29.93R WCI  18
6HR MIN TEMP:  29; 6HR MAX TEMP:  32; 6HR PCP: TRACE;

WASKISH        CLOUDY    30  28  93 NW9G16    29.93R WCI  22
CROOKSTON      CLOUDY    21  19  93 N21G28    30.10R WCI   6
$$
  *****  WEATHER ACROSS CENTRAL AND WEST MINNESOTA  *****

CITY           SKY/WX    TMP DP  RH WIND       PRES   REMARKS
BEMIDJI        CLOUDY    30  29  95 NW15      29.92R WCI  19
PARK RAPIDS    CLOUDY    31  29  92 NW16      29.91R WCI  20
6HR MIN TEMP:  31; 6HR MAX TEMP:  33; 6HR PCP: TRACE;

WADENA         CLOUDY    30  28  93 NW13      29.93R WCI  20
DETROIT LAKES  CLOUDY    27  27 100 NW24      30.00R FOG     WCI  12
MOORHEAD       CLOUDY    28  28 100 N23G30    30.07R WCI  14
FERGUS FALLS   CLOUDY    28  27  93 NW24G35   30.04R WCI  14
ELBOW LAKE     CLOUDY    29  28  94 NW22G30   29.99R WCI  16
MORRIS MN      CLOUDY    30  28  93 NW31G39   29.98R WCI  15
STAPLES        CLOUDY    30  30 100 NW10      29.91R WCI  21
WHEATON        CLOUDY    28  27  93 NW23G31   30.06R WCI  14
$$
  *****  WEATHER ELSEWHERE ACROSS MINNESOTA  *****

CITY           SKY/WX    TMP DP  RH WIND       PRES   REMARKS
DULUTH         FRZ DRZL  28  25  88 NW9       29.81R FOG     WCI  19
6HR MIN TEMP:  28; 6HR MAX TEMP:  29; 6HR PCP: TRACE;

INTRNTL FALLS  CLOUDY    28  24  85 NW13      29.87R WCI  17
6HR MIN TEMP:  27; 6HR MAX TEMP:  29; 6HR PCP: TRACE;

ELY            CLOUDY    27  25  93 W5        29.80S FOG     WCI  21
CLOQUET        CLOUDY    28  27  93 W7        29.83R FOG     WCI  21
BRAINERD       CLOUDY    30  29  96 W8        29.88R FOG     WCI  22
6HR MIN TEMP:  28; 6HR MAX TEMP:  30;

HIBBING        CLOUDY    30  26  85 NW10G16   29.82S WCI  21
6HR MIN TEMP:  28; 6HR MAX TEMP:  30; 6HR PCP: TRACE;

ALEXANDRIA     CLOUDY    31  29  92 NW17G26   29.94R WCI  19
6HR MIN TEMP:  31; 6HR MAX TEMP:  32;

SAINT CLOUD    CLOUDY    30  29  96 NW7       29.88R FOG     WCI  23
6HR MIN TEMP:  29; 6HR MAX TEMP:  30;

MINNEAPOLIS    CLOUDY    30  28  92 NW9       29.87R FOG     WCI  22
6HR MIN TEMP:  30; 6HR MAX TEMP:  31; 6HR PCP: TRACE;

$$

  *****  WEATHER ACROSS SOUTH DAKOTA  *****

CITY           SKY/WX    TMP DP  RH WIND       PRES   REMARKS
SIOUX FALLS    CLOUDY    34  29  82 NW23G36   30.01R WCI  22
6HR MIN TEMP:  34; 6HR MAX TEMP:  38;

BROOKINGS      NOT AVBL
WATERTOWN      CLOUDY    31  27  85 N29G37    30.03R WCI  16
6HR MIN TEMP:  31; 6HR MAX TEMP:  37;

HURON          CLOUDY    33  29  85 NW25G33   30.12R WCI  20
6HR MIN TEMP:  33; 6HR MAX TEMP:  42; 6HR PCP: TRACE;

SISSETON         N/A     31  28  89 N26G38    30.05R WCI  17
ABERDEEN       CLOUDY    32  26  78 N25G37    30.14R WCI  19
6HR MIN TEMP:  32; 6HR MAX TEMP:  35;

MITCHELL       CLOUDY    34  29  82 NW22G33   30.13R WCI  22
PIERRE         CLOUDY    36  29  75 NW25G33   30.22R
6HR MIN TEMP:  35; 6HR MAX TEMP:  43;

MOBRIDGE       CLOUDY    35  29  78 NW23G30   30.19R WCI  23
RAPID CITY     CLOUDY    33  26  75 N26G35    30.31R WCI  20
6HR MIN TEMP:  31; 6HR MAX TEMP:  44;

$$

  *****  SOME WEATHER IN NEARBY STATES *****

CITY           SKY/WX    TMP DP  RH WIND       PRES   REMARKS
GLASGOW MT     CLEAR     28  25  88 NW9       30.38R WCI  19
6HR MIN TEMP:  28; 6HR MAX TEMP:  35;

GREAT FALLS MT CLEAR     29  27  92 CALM      30.37S
6HR MIN TEMP:  27; 6HR MAX TEMP:  39;

CHEYENNE WY    CLOUDY    37  25  61 N13G20    30.32R
6HR MIN TEMP:  37; 6HR MAX TEMP:  41; 6HR PCP: TRACE;

SCOTTSBLUFF NE CLOUDY    40  28  62 W12       30.30R
6HR MIN TEMP:  36; 6HR MAX TEMP:  45;

OMAHA NE       CLOUDY    43  36  76 NW32G43   29.93R
6HR MIN TEMP:  37; 6HR MAX TEMP:  50;

DES MOINES IA  CLOUDY    38  33  82 N28G36    29.78R
6HR MIN TEMP:  34; 6HR MAX TEMP:  50;

DAVENPORT IA   PTCLDY    37  30  75 S10       29.69F
6HR MIN TEMP:  35; 6HR MAX TEMP:  37;

CHICAGO IL     CLOUDY    33  26  75 S17       29.80F WCI  22
6HR MIN TEMP:  31; 6HR MAX TEMP:  34; 6HR PCP:  0.01;

EAU CLAIRE WI  CLOUDY    29  23  78 NW3       29.82R
6HR MIN TEMP:  29; 6HR MAX TEMP:  29;

LA CROSSE WI   CLOUDY    33  27  78 NW3       29.80S
6HR MIN TEMP:  33; 6HR MAX TEMP:  35;

$$

  *****  SOME NATIONAL WEATHER *****

CITY           SKY/WX    TMP DP  RH WIND       PRES   REMARKS
LA GUARDIA NY  CLEAR     24   5  44 N8        30.29R WCI  15


USA.gov is the U.S. government's official web portal to all federal, state and local government web resources and services.